When you browse on this site, cookies collect data to enhance your experience and personalize the content and advertising you see.
Visit our Privacy Policy to learn more. By continuing to use the site, you agree to this use of cookies and data.
  • Em Portugal
  • Lista de países
  • Para 7 dias
  • Temperatura da água
  • Mapa do tempo
  • Widgets de tempo
  • user-avatar
    Iniciar Sessão

    Previsão horária em Catió

    Hoje, 28 Fevereiro, Sexta-feira

    Tempo Temperatura Precipitação Vento Pressão Humidade
    00:00 +24°C° 0 mm 2 m/s 758 mmHg 91%
    01:00 +24°C° 0 mm 2 m/s 758 mmHg 92%
    02:00 +24°C° 0 mm 2 m/s 758 mmHg 92%
    03:00 +24°C° 0 mm 2 m/s 757 mmHg 92%
    04:00 +24°C° 0 mm 2 m/s 757 mmHg 91%
    05:00 +24°C° 0 mm 2 m/s 757 mmHg 91%
    06:00 +25°C° 0 mm 2 m/s 758 mmHg 82%
    07:00 +27°C° 0 mm 2 m/s 758 mmHg 74%
    08:00 +29°C° 0 mm 1 m/s 759 mmHg 65%
    09:00 +32°C° 0 mm 2 m/s 759 mmHg 53%
    10:00 +36°C° 0 mm 2 m/s 758 mmHg 41%
    11:00 +39°C° 0 mm 3 m/s 758 mmHg 28%
    12:00 +39°C° 0 mm 3 m/s 757 mmHg 29%
    13:00 +38°C° 0 mm 4 m/s 757 mmHg 30%
    14:00 +39°C° 0 mm 5 m/s 756 mmHg 31%
    15:00 +37°C° 0 mm 5 m/s 756 mmHg 35%
    16:00 +35°C° 0 mm 5 m/s 755 mmHg 40%
    17:00 +33°C° 0 mm 5 m/s 755 mmHg 44%
    18:00 +30°C° 0 mm 4 m/s 756 mmHg 57%
    19:00 +27°C° 0 mm 4 m/s 756 mmHg 70%
    20:00 +25°C° 0 mm 4 m/s 757 mmHg 83%
    21:00 +25°C° 0 mm 4 m/s 757 mmHg 84%
    22:00 +24°C° 0 mm 3 m/s 757 mmHg 84%
    23:00 +24°C° 0 mm 3 m/s 758 mmHg 85%

    Amanhã, 29 Fevereiro, Sábado

    Tempo Temperatura Precipitação Vento Pressão Humidade
    00:00 +24°C° 0 mm 3 m/s 757 mmHg 85%
    01:00 +23°C° 0 mm 2 m/s 757 mmHg 84%
    02:00 +23°C° 0 mm 2 m/s 757 mmHg 84%
    03:00 +21°C° 0 mm 2 m/s 757 mmHg 82%
    04:00 +21°C° 0 mm 2 m/s 757 mmHg 81%
    05:00 +21°C° 0 mm 1 m/s 756 mmHg 80%
    06:00 +23°C° 0 mm 2 m/s 757 mmHg 68%
    07:00 +25°C° 0 mm 2 m/s 757 mmHg 57%
    08:00 +27°C° 0 mm 2 m/s 758 mmHg 45%
    09:00 +31°C° 0 mm 2 m/s 757 mmHg 36%
    10:00 +35°C° 0 mm 2 m/s 757 mmHg 28%
    11:00 +38°C° 0 mm 2 m/s 757 mmHg 19%
    12:00 +39°C° 0 mm 3 m/s 756 mmHg 21%
    13:00 +39°C° 0 mm 3 m/s 755 mmHg 23%
    14:00 +40°C° 0 mm 4 m/s 755 mmHg 25%
    15:00 +37°C° 0 mm 5 m/s 754 mmHg 32%
    16:00 +35°C° 0 mm 5 m/s 754 mmHg 39%
    17:00 +33°C° 0 mm 5 m/s 754 mmHg 46%
    18:00 +30°C° 0 mm 5 m/s 755 mmHg 55%
    19:00 +27°C° 0 mm 4 m/s 755 mmHg 64%
    20:00 +25°C° 0 mm 4 m/s 756 mmHg 73%
    21:00 +25°C° 0 mm 4 m/s 756 mmHg 74%
    22:00 +23°C° 0 mm 4 m/s 756 mmHg 74%
    23:00 +24°C° 0 mm 3 m/s 757 mmHg 75%

    Depois de amanhã, 1 Março, Domingo

    Tempo Temperatura Precipitação Vento Pressão Humidade
    00:00 +22°C° 0 mm 3 m/s 756 mmHg 77%
    01:00 +23°C° 0 mm 2 m/s 756 mmHg 79%
    02:00 +22°C° 0 mm 1 m/s 756 mmHg 81%
    03:00 +22°C° 0 mm 1 m/s 756 mmHg 80%
    04:00 +22°C° 0 mm 1 m/s 755 mmHg 80%
    05:00 +22°C° 0 mm 1 m/s 755 mmHg 79%
    06:00 +24°C° 0 mm 1 m/s 756 mmHg 71%
    07:00 +26°C° 0 mm 1 m/s 756 mmHg 63%
    08:00 +28°C° 0 mm 2 m/s 757 mmHg 56%
    09:00 +31°C° 0 mm 2 m/s 757 mmHg 45%
    10:00 +35°C° 0 mm 2 m/s 756 mmHg 35%
    11:00 +38°C° 0 mm 3 m/s 756 mmHg 25%
    12:00 +39°C° 0 mm 3 m/s 756 mmHg 25%
    13:00 +40°C° 0 mm 4 m/s 755 mmHg 26%
    14:00 +40°C° 0 mm 5 m/s 754 mmHg 27%
    15:00 +37°C° 0 mm 5 m/s 754 mmHg 34%
    16:00 +34°C° 0 mm 6 m/s 754 mmHg 42%
    17:00 +32°C° 0 mm 6 m/s 754 mmHg 49%
    18:00 +29°C° 0 mm 5 m/s 754 mmHg 60%
    19:00 +27°C° 0 mm 5 m/s 755 mmHg 70%
    20:00 +25°C° 0 mm 5 m/s 756 mmHg 81%
    21:00 +25°C° 0 mm 4 m/s 756 mmHg 84%
    22:00 +25°C° 0 mm 3 m/s 757 mmHg 86%
    23:00 +24°C° 0 mm 2 m/s 757 mmHg 89%

    2 Março, Segunda-feira

    Tempo Temperatura Precipitação Vento Pressão Humidade
    00:00 +24°C° 0 mm 2 m/s 757 mmHg 89%
    01:00 +23°C° 0 mm 2 m/s 757 mmHg 90%
    02:00 +23°C° 0 mm 1 m/s 756 mmHg 90%
    03:00 +23°C° 0 mm 1 m/s 756 mmHg 90%
    04:00 +23°C° 0 mm 1 m/s 756 mmHg 90%
    05:00 +23°C° 0 mm 1 m/s 756 mmHg 90%
    06:00 +24°C° 0 mm 2 m/s 757 mmHg 83%
    07:00 +26°C° 0 mm 2 m/s 757 mmHg 75%
    08:00 +28°C° 0 mm 2 m/s 758 mmHg 68%
    09:00 +31°C° 0 mm 2 m/s 758 mmHg 56%
    10:00 +35°C° 0 mm 3 m/s 758 mmHg 44%
    11:00 +39°C° 0 mm 3 m/s 758 mmHg 32%
    12:00 +38°C° 0 mm 4 m/s 757 mmHg 34%
    13:00 +38°C° 0 mm 4 m/s 756 mmHg 35%
    14:00 +37°C° 0 mm 5 m/s 755 mmHg 37%
    15:00 +35°C° 0 mm 5 m/s 755 mmHg 43%
    16:00 +34°C° 0 mm 5 m/s 755 mmHg 49%
    17:00 +32°C° 0 mm 5 m/s 755 mmHg 55%
    18:00 +29°C° 0 mm 5 m/s 755 mmHg 64%
    19:00 +27°C° 0 mm 5 m/s 756 mmHg 74%
    20:00 +26°C° 0 mm 5 m/s 756 mmHg 83%
    21:00 +25°C° 0 mm 4 m/s 757 mmHg 85%
    22:00 +24°C° 0 mm 3 m/s 757 mmHg 87%
    23:00 +24°C° 0 mm 2 m/s 758 mmHg 89%

    3 Março, Terça-feira

    Tempo Temperatura Precipitação Vento Pressão Humidade
    00:00 +24°C° 0 mm 2 m/s 757 mmHg 89%
    01:00 +23°C° 0 mm 2 m/s 757 mmHg 90%
    02:00 +23°C° 0 mm 1 m/s 756 mmHg 90%
    03:00 +23°C° 0 mm 1 m/s 757 mmHg 90%
    04:00 +23°C° 0 mm 1 m/s 757 mmHg 91%
    05:00 +22°C° 0 mm 1 m/s 757 mmHg 91%
    06:00 +24°C° 0 mm 1 m/s 757 mmHg 83%
    07:00 +26°C° 0 mm 1 m/s 758 mmHg 74%
    08:00 +28°C° 0 mm 1 m/s 758 mmHg 66%
    09:00 +31°C° 0 mm 2 m/s 758 mmHg 55%
    10:00 +35°C° 0 mm 2 m/s 758 mmHg 44%
    11:00 +37°C° 0 mm 3 m/s 758 mmHg 33%
    12:00 +37°C° 0 mm 4 m/s 758 mmHg 34%
    13:00 +37°C° 0 mm 4 m/s 757 mmHg 34%
    14:00 +37°C° 0 mm 5 m/s 756 mmHg 35%
    15:00 +36°C° 0 mm 5 m/s 756 mmHg 39%
    16:00 +34°C° 0 mm 5 m/s 756 mmHg 43%
    17:00 +33°C° 0 mm 5 m/s 756 mmHg 47%
    18:00 +30°C° 0 mm 5 m/s 756 mmHg 59%
    19:00 +27°C° 0 mm 5 m/s 756 mmHg 72%
    20:00 +25°C° 0 mm 4 m/s 757 mmHg 84%
    21:00 +25°C° 0 mm 4 m/s 757 mmHg 86%
    22:00 +25°C° 0 mm 4 m/s 757 mmHg 87%
    23:00 +24°C° 0 mm 3 m/s 758 mmHg 89%

    4 Março, Quarta-feira

    Tempo Temperatura Precipitação Vento Pressão Humidade
    00:00 +24°C° 0 mm 3 m/s 757 mmHg 90%
    01:00 +24°C° 0 mm 2 m/s 757 mmHg 91%
    02:00 +23°C° 0 mm 2 m/s 757 mmHg 91%
    03:00 +23°C° 0 mm 2 m/s 757 mmHg 91%
    04:00 +23°C° 0 mm 1 m/s 757 mmHg 91%
    05:00 +23°C° 0 mm 1 m/s 757 mmHg 91%
    06:00 +25°C° 0 mm 1 m/s 758 mmHg 82%
    07:00 +26°C° 0 mm 1 m/s 758 mmHg 74%
    08:00 +28°C° 0 mm 1 m/s 759 mmHg 65%
    09:00 +31°C° 0 mm 1 m/s 758 mmHg 53%
    10:00 +35°C° 0 mm 2 m/s 758 mmHg 40%
    11:00 +39°C° 0 mm 2 m/s 758 mmHg 28%
    12:00 +39°C° 0 mm 3 m/s 757 mmHg 27%
    13:00 +39°C° 0 mm 3 m/s 756 mmHg 26%
    14:00 +41°C° 0 mm 4 m/s 756 mmHg 25%
    15:00 +37°C° 0 mm 4 m/s 755 mmHg 31%
    16:00 +35°C° 0 mm 5 m/s 755 mmHg 38%
    17:00 +33°C° 0 mm 6 m/s 755 mmHg 44%
    18:00 +30°C° 0 mm 5 m/s 756 mmHg 56%
    19:00 +27°C° 0 mm 4 m/s 756 mmHg 69%
    20:00 +25°C° 0 mm 4 m/s 756 mmHg 81%
    21:00 +25°C° 0 mm 4 m/s 757 mmHg 83%
    22:00 +23°C° 0 mm 4 m/s 757 mmHg 84%
    23:00 +24°C° 0 mm 3 m/s 758 mmHg 86%
    Mostrar mais